CDT,Max TemperatureF,Mean TemperatureF,Min TemperatureF,Max Dew PointF,MeanDew PointF,Min DewpointF,Max Humidity, Mean Humidity, Min Humidity, Max Sea Level PressureIn, Mean Sea Level PressureIn, Min Sea Level PressureIn, Max VisibilityMiles, Mean VisibilityMiles, Min VisibilityMiles, Max Wind SpeedMPH, Mean Wind SpeedMPH, Max Gust SpeedMPH,PrecipitationIn, CloudCover, Events, WindDirDegrees
2013-3-1,40,37,34,32,30,28,89,77,64,30.12,30.09,30.06,10,8,3,16,7,17,0.01,8,Snow,298
2013-3-2,36,34,32,30,27,23,82,73,64,30.20,30.14,30.07,10,9,2,16,9,21,T,8,Snow,318
2013-3-3,47,38,28,27,19,14,72,49,26,30.22,30.16,30.11,10,10,10,17,6,21,0.00,3,,318
2013-3-4,65,48,31,44,29,23,78,52,25,30.14,30.01,29.86,10,10,10,20,8,25,0.00,2,,152
2013-3-5,60,49,37,55,46,20,83,66,48,30.11,29.87,29.73,10,8,1,32,15,40,0.73,7,Rain-Thunderstorm,246
2013-3-6,45,39,33,26,24,21,70,59,48,30.31,30.26,30.12,10,10,10,21,11,30,0.00,5,,320
2013-3-7,54,42,30,30,27,24,72,57,41,30.39,30.34,30.30,10,10,9,10,5,14,0.00,1,,47
2013-3-8,63,47,31,30,27,21,78,49,20,30.40,30.32,30.25,10,10,8,9,3,13,0.00,0,,75
2013-3-9,73,55,37,38,33,29,79,51,22,30.25,30.15,30.04,10,10,8,17,6,21,0.00,0,,133
2013-3-10,75,65,54,56,43,33,78,56,34,30.05,29.93,29.81,10,9,4,28,14,39,0.09,3,Rain,160
2013-3-11,61,49,37,56,42,30,89,74,58,30.02,29.89,29.81,10,8,2,23,9,29,1.04,7,Rain,273
2013-3-12,58,46,33,30,28,25,82,56,30,30.20,30.12,30.04,10,10,9,16,6,21,0.00,0,,311
2013-3-13,53,43,33,32,24,19,82,55,28,30.41,30.31,30.19,10,10,10,22,9,31,0.00,0,,317
2013-3-14,58,43,27,30,23,18,78,50,21,30.46,30.36,30.25,10,10,10,10,3,14,0.00,1,,117
2013-3-15,79,59,39,45,38,28,70,49,27,30.23,30.07,29.94,10,10,10,23,9,28,0.00,0,,222
2013-3-16,78,66,53,50,46,41,77,55,33,29.96,29.91,29.86,10,10,9,22,11,31,0.00,0,,234
2013-3-17,74,64,54,54,49,45,77,56,35,29.96,29.88,29.80,10,10,10,21,9,29,0.00,1,,199
2013-3-18,66,57,48,61,54,42,87,78,68,30.00,29.81,29.74,10,8,2,41,11,55,0.57,7,Rain-Thunderstorm,229
2013-3-19,63,49,34,43,33,19,96,60,23,30.18,30.11,30.03,10,6,0,12,4,16,0.00,0,Fog,360
2013-3-20,59,49,39,30,25,19,65,47,29,30.20,30.12,30.04,10,10,10,26,9,35,0.00,2,,324
2013-3-21,49,39,29,26,16,10,59,41,23,30.14,30.05,29.97,10,10,9,13,4,18,0.00,2,,43
2013-3-22,48,44,40,40,37,28,82,70,57,30.04,29.99,29.95,10,10,4,13,6,16,0.08,8,Rain,117
2013-3-23,55,50,45,50,46,39,86,82,77,29.96,29.86,29.69,10,5,2,18,7,24,0.96,8,Rain-Thunderstorm,96
2013-3-24,58,48,38,54,46,25,93,74,54,29.85,29.63,29.53,10,7,2,37,15,48,0.25,8,Rain,244
2013-3-25,41,38,35,26,23,21,64,55,45,30.21,30.04,29.87,10,10,10,29,16,40,T,8,,295
2013-3-26,44,39,33,27,25,23,75,62,49,30.38,30.28,30.19,10,10,9,16,7,22,0.00,7,,315
2013-3-27,57,42,26,33,26,22,85,57,28,30.44,30.37,30.31,10,10,9,15,3,18,0.00,0,,287
2013-3-28,65,49,32,36,30,24,89,56,23,30.40,30.33,30.27,10,10,8,8,2,13,0.00,0,,146
2013-3-29,71,55,38,47,37,32,79,54,28,30.30,30.23,30.17,10,10,8,17,5,26,T,5,Rain,298
2013-3-30,64,54,44,55,51,41,93,77,60,30.18,30.08,29.97,10,7,2,10,4,14,0.49,7,Rain,166
2013-3-31,69,59,48,58,55,48,93,78,63,29.98,29.93,29.88,10,8,1,17,4,22,0.43,7,Rain-Thunderstorm,250